GW6716 Weather Reports


time (UTC)temp
C
wind
direction
speed
KPH
gust
KPH
rain 1hr
cm
rain 24hr
cm
rain mn
cm
humidity
%
barometer
mb
20260504215037 22 141 0.0 0.0 0.00 0.00 0.00 37 1011.2
20260504214533 23 158 3.2 3.2 0.00 0.00 0.00 37 1011.1
20260504214030 23 176 1.6 3.2 0.00 0.00 0.00 36 1011.0
20260504213526 23 99 1.6 1.6 0.00 0.00 0.00 37 1011.3
20260504213024 23 180 6.4 6.4 0.00 0.00 0.00 36 1011.3
20260504212519 23 78 0.0 0.0 0.00 0.00 0.00 36 1011.0
20260504212017 23 130 1.6 1.6 0.00 0.00 0.00 37 1011.2
20260504211514 23 149 0.0 1.6 0.00 0.00 0.00 36 1011.2
20260504211011 23 186 3.2 3.2 0.00 0.00 0.00 35 1011.3
20260504210508 23 116 1.6 3.2 0.00 0.00 0.00 36 1011.6
20260504210004 23 202 6.4 6.4 0.00 0.00 0.00 36 1011.4
20260504205502 22 192 1.6 3.2 0.00 0.00 0.00 36 1011.4
20260504205000 23 147 0.0 1.6 0.00 0.00 0.00 35 1011.4
20260504204458 23 172 4.8 4.8 0.00 0.00 0.00 35 1011.4
20260504203957 23 144 3.2 4.8 0.00 0.00 0.00 36 1011.5
20260504203454 23 198 3.2 3.2 0.00 0.00 0.00 36 1011.4
20260504202950 23 246 3.2 3.2 0.00 0.00 0.00 37 1011.4
20260504202447 22 151 0.0 1.6 0.00 0.00 0.00 37 1011.6
20260504201943 22 278 4.8 4.8 0.00 0.00 0.00 37 1011.7
20260504201441 22 227 4.8 4.8 0.00 0.00 0.00 36 1011.8
20260504200938 22 168 3.2 3.2 0.00 0.00 0.00 37 1011.8
20260504200435 23 200 1.6 3.2 0.00 0.00 0.00 36 1011.7
20260504195931 22 202 1.6 1.6 0.00 0.00 0.00 36 1012.0
20260504195427 22 118 3.2 4.8 0.00 0.00 0.00 36 1012.1
20260504194924 22 198 3.2 3.2 0.00 0.00 0.00 36 1012.1
20260504194420 22 159 1.6 1.6 0.00 0.00 0.00 36 1012.3
20260504193916 22 116 0.0 1.6 0.00 0.00 0.00 35 1012.4
20260504193414 21 170 3.2 3.2 0.00 0.00 0.00 36 1012.3
20260504192912 22 128 3.2 4.8 0.00 0.00 0.00 35 1012.5
20260504192409 21 106 3.2 4.8 0.00 0.00 0.00 36 1012.6
20260504191908 21 157 1.6 1.6 0.00 0.00 0.00 36 1012.7
20260504191406 22 141 3.2 4.8 0.00 0.00 0.00 35 1012.7
20260504190900 21 212 6.4 9.7 0.00 0.00 0.00 35 1012.8
20260504190357 22 193 3.2 4.8 0.00 0.00 0.00 35 1012.9
20260504185853 21 160 0.0 1.6 0.00 0.00 0.00 38 1012.9
20260504185351 21 121 0.0 0.0 0.00 0.00 0.00 37 1012.8
20260504184846 21 132 3.2 3.2 0.00 0.00 0.00 35 1012.9
20260504184342 21 168 3.2 3.2 0.00 0.00 0.00 38 1013.0
20260504183839 22 135 1.6 1.6 0.00 0.00 0.00 35 1013.0
20260504183336 21 156 3.2 4.8 0.00 0.00 0.00 36 1013.1
20260504182834 20 221 3.2 4.8 0.00 0.00 0.00 36 1013.2
20260504182331 21 186 3.2 4.8 0.00 0.00 0.00 37 1013.4
20260504181828 22 234 4.8 6.4 0.00 0.00 0.00 35 1013.5
20260504181325 21 94 4.8 9.7 0.00 0.00 0.00 35 1013.5
20260504180824 21 219 1.6 1.6 0.00 0.00 0.00 35 1013.3
20260504180322 21 245 4.8 4.8 0.00 0.00 0.00 35 1013.4
20260504175820 21 236 4.8 6.4 0.00 0.00 0.00 35 1013.5
20260504175316 21 153 1.6 3.2 0.00 0.00 0.00 35 1013.5
20260504174815 21 84 0.0 1.6 0.00 0.00 0.00 35 1013.5
20260504174312 21 154 3.2 6.4 0.00 0.00 0.00 36 1013.7
20260504173808 21 191 6.4 6.4 0.00 0.00 0.00 34 1013.9
20260504173305 20 194 4.8 6.4 0.00 0.00 0.00 36 1013.8
20260504172802 20 106 6.4 6.4 0.00 0.00 0.00 36 1014.0
20260504172259 20 122 4.8 4.8 0.00 0.00 0.00 35 1014.1
20260504171754 21 200 3.2 3.2 0.00 0.00 0.00 34 1014.3
20260504171252 20 109 0.0 0.0 0.00 0.00 0.00 37 1014.3
20260504170749 21 248 0.0 1.6 0.00 0.00 0.00 35 1014.2
20260504170246 21 88 1.6 4.8 0.00 0.00 0.00 33 1014.3
20260504160204 20 100 1.6 1.6 0.00 0.00 0.00 41 1015.2
20260504151132 20 134 1.6 1.6 0.00 0.00 0.00 45 1015.6
20260504150630 20 131 3.2 3.2 0.00 0.00 0.00 41 1015.5
20260504150126 18 168 3.2 3.2 0.00 0.00 0.00 42 1015.5
20260504141055 16 219 1.6 3.2 0.00 0.00 0.00 51 1015.6
20260504140552 17 133 0.0 0.0 0.00 0.00 0.00 49 1015.8
20260504130516 15 237 3.2 6.4 0.00 0.00 0.00 61 1016.0
20260504110403 9 210 1.6 3.2 0.00 0.00 0.00 84 1016.4
20260504100320 7 170 0.0 1.6 0.00 0.00 0.00 84 1016.6
20260504081714 8 156 0.0 1.6 0.00 0.00 0.00 77 1016.5
20260504081210 8 184 0.0 1.6 0.00 0.00 0.00 76 1016.6
20260504080707 8 145 0.0 0.0 0.00 0.00 0.00 75 1016.6
20260504080203 8 183 0.0 0.0 0.00 0.00 0.00 75 1016.5
20260504070131 9 215 0.0 0.0 0.00 0.00 0.00 72 1016.5
20260504050520 9 243 4.8 4.8 0.00 0.00 0.00 65 1016.6
20260504050017 9 227 0.0 1.6 0.00 0.00 0.00 67 1016.5
20260504045513 9 224 0.0 1.6 0.00 0.00 0.00 66 1016.6
20260504045009 10 227 3.2 3.2 0.00 0.00 0.00 66 1016.5
20260504044506 10 207 0.0 1.6 0.00 0.00 0.00 68 1016.5
20260504044003 10 130 1.6 1.6 0.00 0.00 0.00 66 1016.4
20260504043500 10 225 3.2 3.2 0.00 0.00 0.00 67 1016.5
20260504042958 10 221 3.2 3.2 0.00 0.00 0.00 68 1016.4
20260504042454 10 216 1.6 1.6 0.00 0.00 0.00 73 1016.4
20260504041951 10 223 1.6 1.6 0.00 0.00 0.00 74 1016.3
20260504041447 10 222 1.6 1.6 0.00 0.00 0.00 73 1016.2
20260504040943 10 240 1.6 1.6 0.00 0.00 0.00 72 1016.0
20260504040441 10 147 0.0 0.0 0.00 0.00 0.00 71 1016.1
20260504035937 10 231 1.6 1.6 0.00 0.00 0.00 69 1016.1
20260504035435 10 244 1.6 3.2 0.00 0.00 0.00 70 1016.0
20260504034931 10 258 4.8 4.8 0.00 0.00 0.00 69 1016.0
20260504034429 10 221 1.6 1.6 0.00 0.00 0.00 65 1016.1
20260504033925 10 228 0.0 0.0 0.00 0.00 0.00 60 1015.9
20260504033423 11 219 0.0 0.0 0.00 0.00 0.00 57 1015.9
20260504032920 11 222 0.0 1.6 0.00 0.00 0.00 56 1015.8
20260504032417 11 239 3.2 3.2 0.00 0.00 0.00 56 1016.0
20260504031914 11 234 1.6 1.6 0.00 0.00 0.00 57 1015.9
20260504031411 11 238 0.0 0.0 0.00 0.00 0.00 59 1015.9
20260504030907 10 223 3.2 4.8 0.00 0.00 0.00 59 1015.7
20260504030404 11 188 0.0 0.0 0.00 0.00 0.00 59 1015.7
20260504025900 11 230 1.6 1.6 0.00 0.00 0.00 58 1015.7
20260504025357 11 273 1.6 1.6 0.00 0.00 0.00 58 1015.8
20260504024854 11 212 0.0 0.0 0.00 0.00 0.00 57 1015.8
20260504024350 11 215 0.0 0.0 0.00 0.00 0.00 56 1015.7
20260504023848 11 200 0.0 0.0 0.00 0.00 0.00 56 1015.5
20260504023344 11 200 0.0 0.0 0.00 0.00 0.00 55 1016.0
20260504022840 11 208 0.0 0.0 0.00 0.00 0.00 54 1015.7
20260504022337 11 241 1.6 1.6 0.00 0.00 0.00 53 1015.6
20260504021833 11 246 1.6 1.6 0.00 0.00 0.00 52 1015.6
20260504021331 11 218 0.0 0.0 0.00 0.00 0.00 51 1016.0
20260504020828 11 228 0.0 0.0 0.00 0.00 0.00 50 1015.8
20260504020324 11 220 1.6 1.6 0.00 0.00 0.00 49 1015.9
20260504015820 11 210 0.0 0.0 0.00 0.00 0.00 49 1015.8
20260504015317 11 211 0.0 0.0 0.00 0.00 0.00 49 1015.9
20260504014813 11 247 1.6 1.6 0.00 0.00 0.00 47 1015.7
20260504014309 11 191 0.0 0.0 0.00 0.00 0.00 48 1015.9
20260504013807 11 192 0.0 0.0 0.00 0.00 0.00 46 1015.7
20260504013305 12 214 0.0 0.0 0.00 0.00 0.00 44 1015.7
20260504012801 12 229 0.0 0.0 0.00 0.00 0.00 44 1015.5
20260504012259 12 215 0.0 0.0 0.00 0.00 0.00 43 1015.5
20260504011755 12 225 0.0 1.6 0.00 0.00 0.00 44 1015.3
20260504011252 12 184 0.0 0.0 0.00 0.00 0.00 44 1015.4
20260504010748 12 202 0.0 0.0 0.00 0.00 0.00 45 1015.4
20260504010244 12 142 0.0 0.0 0.00 0.00 0.00 44 1015.5
20260504005741 12 155 0.0 0.0 0.00 0.00 0.00 44 1015.4
20260504005238 12 222 1.6 1.6 0.00 0.00 0.00 42 1015.2
20260504004736 12 249 0.0 1.6 0.00 0.00 0.00 41 1015.1
20260504004232 12 216 0.0 1.6 0.00 0.00 0.00 42 1015.0
20260504003729 12 231 4.8 4.8 0.00 0.00 0.00 42 1015.0
20260504003226 12 232 1.6 3.2 0.00 0.00 0.00 43 1015.1
20260504002723 12 199 0.0 0.0 0.00 0.00 0.00 43 1015.0
20260504002220 12 236 0.0 0.0 0.00 0.00 0.00 41 1015.0
20260504001718 13 225 0.0 0.0 0.00 0.00 0.00 41 1014.6
20260504001214 13 231 0.0 1.6 0.00 0.00 0.00 41 1014.6
20260504000711 13 205 0.0 0.0 0.00 0.00 0.00 40 1014.7
20260504000208 13 284 0.0 1.6 0.00 0.00 0.00 41 1014.6
20260503235706 13 187 0.0 0.0 0.00 0.00 0.00 41 1014.3
20260503235203 13 248 0.0 0.0 0.00 0.00 0.00 40 1014.5
20260503234701 13 183 0.0 0.0 0.00 0.00 0.00 39 1014.5
20260503234159 13 234 0.0 1.6 0.00 0.00 0.00 39 1014.4
20260503233655 14 245 1.6 1.6 0.00 0.00 0.00 38 1014.3
20260503233151 14 280 1.6 3.2 0.00 0.00 0.00 37 1014.4
20260503232648 14 240 0.0 1.6 0.00 0.00 0.00 36 1014.5
20260503232145 14 272 0.0 1.6 0.00 0.00 0.00 37 1014.5
20260503231644 15 106 4.8 6.4 0.00 0.00 0.00 36 1014.4
20260503231139 15 271 1.6 1.6 0.00 0.00 0.00 37 1014.4
20260503230636 15 238 6.4 9.7 0.00 0.00 0.00 35 1014.2
20260503230134 15 244 1.6 3.2 0.00 0.00 0.00 36 1014.2
20260503225631 15 240 3.2 4.8 0.00 0.00 0.00 36 1014.2
20260503225131 15 260 4.8 4.8 0.00 0.00 0.00 35 1014.1
20260503224628 15 140 0.0 0.0 0.00 0.00 0.00 35 1014.0
20260503224126 15 232 1.6 3.2 0.00 0.00 0.00 35 1014.3
20260503223624 15 273 1.6 3.2 0.00 0.00 0.00 34 1014.2
20260503223120 15 266 4.8 4.8 0.00 0.00 0.00 34 1014.3
20260503222617 15 200 1.6 1.6 0.00 0.00 0.00 34 1014.2
20260503222115 16 256 4.8 4.8 0.00 0.00 0.00 33 1014.2
20260503221613 16 221 3.2 4.8 0.00 0.00 0.00 32 1014.3
20260503221110 16 235 8.0 11.3 0.00 0.00 0.00 32 1014.4
20260503220607 16 286 6.4 9.7 0.00 0.00 0.00 32 1014.4
20260503220104 16 333 4.8 6.4 0.00 0.00 0.00 33 1014.3
20260503215600 16 219 3.2 6.4 0.00 0.00 0.00 32 1014.3